TimeEST,TemperatureF,Dew PointF,Humidity,Sea Level PressureIn,VisibilityMPH,Wind Direction,Wind SpeedMPH,Gust SpeedMPH,PrecipitationIn,Events,Conditions,WindDirDegrees,DateUTC
12:15 AM,46.4,44.6,93,29.94,10.0,NE,12.7,20.7,N/A,Rain,Light Rain,50,2013-02-26 05:15:00
12:35 AM,46.4,44.6,93,29.93,10.0,ENE,12.7,17.3,N/A,Rain,Light Rain,70,2013-02-26 05:35:00
12:55 AM,48.2,46.4,93,29.93,7.0,East,10.4,-,N/A,Rain,Light Rain,80,2013-02-26 05:55:00
1:15 AM,50.0,46.4,87,29.91,7.0,ENE,11.5,-,N/A,,Drizzle,60,2013-02-26 06:15:00
1:35 AM,50.0,48.2,94,29.89,7.0,ENE,11.5,17.3,N/A,Rain,Light Rain,60,2013-02-26 06:35:00
1:55 AM,51.8,50.0,94,29.88,7.0,ENE,10.4,17.3,N/A,,Light Drizzle,60,2013-02-26 06:55:00
2:15 AM,53.6,51.8,94,29.86,7.0,ENE,12.7,18.4,N/A,Rain,Rain,70,2013-02-26 07:15:00
2:35 AM,53.6,53.6,100,29.85,7.0,ENE,12.7,21.9,N/A,Rain,Light Rain,70,2013-02-26 07:35:00
2:55 AM,55.4,53.6,94,29.84,5.0,ENE,11.5,18.4,N/A,Rain,Rain,70,2013-02-26 07:55:00
3:15 AM,55.4,53.6,94,29.83,5.0,ENE,13.8,19.6,N/A,Rain,Light Rain,70,2013-02-26 08:15:00
3:35 AM,55.4,55.4,100,29.81,5.0,ENE,12.7,18.4,N/A,Rain,Light Rain,60,2013-02-26 08:35:00
3:55 AM,55.4,55.4,100,29.79,7.0,ENE,11.5,16.1,N/A,,Drizzle,70,2013-02-26 08:55:00
4:15 AM,57.2,55.4,94,29.77,7.0,East,10.4,19.6,N/A,,Light Drizzle,80,2013-02-26 09:15:00
4:35 AM,59.0,57.2,94,29.76,7.0,ENE,8.1,-,N/A,,Overcast,70,2013-02-26 09:35:00
4:55 AM,59.0,57.2,94,29.75,4.0,East,8.1,-,N/A,,Overcast,80,2013-02-26 09:55:00
5:15 AM,60.8,59.0,94,29.75,5.0,East,5.8,-,N/A,,Overcast,80,2013-02-26 10:15:00
5:35 AM,60.8,60.8,100,29.75,4.0,East,5.8,-,N/A,,Overcast,80,2013-02-26 10:35:00
5:55 AM,60.8,60.8,100,29.74,4.0,East,4.6,-,N/A,Rain,Light Rain,80,2013-02-26 10:55:00
6:15 AM,60.8,60.8,100,29.73,5.0,East,5.8,-,N/A,Rain,Light Rain,100,2013-02-26 11:15:00
6:35 AM,62.6,60.8,94,29.72,5.0,ESE,12.7,18.4,N/A,Rain,Heavy Rain,110,2013-02-26 11:35:00
7:15 AM,64.4,62.6,94,29.70,7.0,ESE,11.5,19.6,N/A,Rain-Thunderstorm,Light Thunderstorms and Rain,120,2013-02-26 12:15:00
7:35 AM,64.4,64.4,100,29.71,5.0,SE,15.0,31.1,N/A,Rain-Thunderstorm,Light Thunderstorms and Rain,140,2013-02-26 12:35:00
7:55 AM,64.4,64.4,100,29.72,2.5,SSE,4.6,-,N/A,Rain,Rain,150,2013-02-26 12:55:00
8:15 AM,64.4,64.4,100,29.71,7.0,SSE,10.4,16.1,N/A,Rain-Thunderstorm,Light Thunderstorms and Rain,150,2013-02-26 13:15:00
8:35 AM,66.2,64.4,94,29.72,5.0,SSE,8.1,-,N/A,Rain,Light Rain,150,2013-02-26 13:35:00
8:55 AM,68.0,66.2,94,29.71,3.0,SSE,9.2,23.0,N/A,Rain-Thunderstorm,Light Thunderstorms and Rain,160,2013-02-26 13:55:00
9:15 AM,66.2,64.4,94,29.71,5.0,South,3.5,-,N/A,Rain,Light Rain,190,2013-02-26 14:15:00
9:35 AM,68.0,64.4,88,29.70,5.0,SSE,8.1,-,N/A,Rain,Light Rain,150,2013-02-26 14:35:00
9:55 AM,68.0,66.2,94,29.71,4.0,SSE,8.1,-,N/A,Rain,Light Rain,160,2013-02-26 14:55:00
10:35 AM,64.4,62.6,94,29.70,4.0,South,10.4,28.8,N/A,,Overcast,180,2013-02-26 15:35:00
11:15 AM,68.0,62.6,83,29.67,5.0,South,16.1,34.5,N/A,,Mostly Cloudy,190,2013-02-26 16:15:00
11:35 AM,68.0,62.6,83,29.66,5.0,SSW,17.3,28.8,N/A,,Haze,200,2013-02-26 16:35:00
11:55 AM,68.0,62.6,83,29.65,4.0,South,13.8,27.6,N/A,,Haze,190,2013-02-26 16:55:00
12:15 PM,69.8,64.4,83,29.64,5.0,South,17.3,25.3,N/A,,Haze,190,2013-02-26 17:15:00
12:35 PM,68.0,64.4,88,29.63,4.0,South,15.0,31.1,N/A,,Overcast,190,2013-02-26 17:35:00
12:55 PM,69.8,62.6,78,29.62,7.0,South,17.3,28.8,N/A,,Scattered Clouds,190,2013-02-26 17:55:00
1:15 PM,69.8,64.4,83,29.60,7.0,South,19.6,29.9,N/A,,Scattered Clouds,190,2013-02-26 18:15:00
1:35 PM,68.0,62.6,83,29.60,7.0,South,15.0,28.8,N/A,,Scattered Clouds,190,2013-02-26 18:35:00
1:55 PM,69.8,62.6,78,29.60,10.0,SSW,17.3,27.6,N/A,,Scattered Clouds,200,2013-02-26 18:55:00
2:15 PM,69.8,62.6,78,29.61,10.0,SSW,13.8,23.0,N/A,,Scattered Clouds,200,2013-02-26 19:15:00
2:35 PM,69.8,60.8,73,29.60,10.0,SSW,10.4,20.7,N/A,,Clear,200,2013-02-26 19:35:00
2:55 PM,69.8,62.6,78,29.60,10.0,SSW,9.2,19.6,N/A,,Clear,200,2013-02-26 19:55:00
3:15 PM,69.8,60.8,73,29.60,10.0,SSW,9.2,16.1,N/A,,Clear,200,2013-02-26 20:15:00
3:35 PM,69.8,60.8,73,29.61,10.0,South,9.2,-,N/A,,Clear,190,2013-02-26 20:35:00
3:55 PM,68.0,60.8,78,29.60,10.0,South,8.1,-,N/A,,Clear,190,2013-02-26 20:55:00
4:15 PM,69.8,60.8,73,29.61,10.0,South,8.1,-,N/A,,Clear,190,2013-02-26 21:15:00
4:35 PM,69.8,60.8,73,29.60,10.0,South,10.4,-,N/A,,Clear,190,2013-02-26 21:35:00
4:55 PM,69.8,59.0,68,29.60,10.0,South,8.1,-,N/A,,Clear,190,2013-02-26 21:55:00
5:15 PM,68.0,59.0,73,29.59,10.0,South,9.2,-,N/A,,Clear,180,2013-02-26 22:15:00
5:35 PM,68.0,57.2,68,29.59,10.0,South,8.1,-,N/A,,Clear,180,2013-02-26 22:35:00
5:55 PM,64.4,59.0,83,29.60,7.0,South,5.8,-,N/A,,Clear,180,2013-02-26 22:55:00
6:15 PM,64.4,55.4,73,29.61,7.0,SSW,6.9,-,N/A,,Clear,200,2013-02-26 23:15:00
6:55 PM,62.6,55.4,77,29.63,7.0,SSW,6.9,-,N/A,,Clear,200,2013-02-26 23:55:00
7:15 PM,62.6,53.6,72,29.65,7.0,SSW,5.8,-,N/A,,Clear,200,2013-02-27 00:15:00
7:35 PM,62.6,53.6,72,29.65,7.0,South,4.6,-,N/A,,Clear,190,2013-02-27 00:35:00
7:55 PM,62.6,51.8,68,29.65,7.0,SW,5.8,-,N/A,,Clear,220,2013-02-27 00:55:00
8:15 PM,64.4,50.0,59,29.66,10.0,SSW,5.8,-,N/A,,Clear,200,2013-02-27 01:15:00
8:35 PM,64.4,46.4,52,29.67,7.0,SSW,6.9,-,N/A,,Clear,210,2013-02-27 01:35:00
8:55 PM,64.4,46.4,52,29.68,7.0,SW,6.9,-,N/A,,Clear,220,2013-02-27 01:55:00
9:15 PM,64.4,46.4,52,29.70,7.0,SW,10.4,16.1,N/A,,Clear,220,2013-02-27 02:15:00
9:35 PM,64.4,48.2,56,29.70,7.0,SW,8.1,-,N/A,,Clear,230,2013-02-27 02:35:00
10:15 PM,64.4,48.2,56,29.71,7.0,SW,8.1,-,N/A,,Clear,220,2013-02-27 03:15:00
10:35 PM,62.6,48.2,59,29.72,7.0,SW,9.2,-,N/A,,Clear,220,2013-02-27 03:35:00
10:55 PM,62.6,48.2,59,29.72,7.0,SW,12.7,18.4,N/A,,Clear,220,2013-02-27 03:55:00
11:15 PM,62.6,48.2,59,29.73,7.0,SW,9.2,17.3,N/A,,Clear,230,2013-02-27 04:15:00
11:35 PM,62.6,48.2,59,29.73,7.0,SW,11.5,18.4,N/A,,Clear,230,2013-02-27 04:35:00
11:55 PM,60.8,48.2,63,29.73,7.0,SW,9.2,17.3,N/A,,Clear,220,2013-02-27 04:55:00